TimeEDT,TemperatureF,Dew PointF,Humidity,Sea Level PressureIn,VisibilityMPH,Wind Direction,Wind SpeedMPH,Gust SpeedMPH,PrecipitationIn,Events,Conditions,WindDirDegrees,DateUTC
12:00 AM,62.6,62.6,100,29.69,5.0,Calm,Calm,-,0.00,,Clear,0,2013-06-30 04:00:00
12:20 AM,64.4,64.4,100,29.69,9.0,NE,3.5,-,0.00,,Partly Cloudy,40,2013-06-30 04:20:00
12:40 AM,62.6,62.6,100,29.69,10.0,Calm,Calm,-,0.00,,Partly Cloudy,0,2013-06-30 04:40:00
1:00 AM,62.6,62.6,100,29.69,10.0,Calm,Calm,-,0.00,,Partly Cloudy,0,2013-06-30 05:00:00
1:20 AM,62.6,62.6,100,29.70,10.0,Calm,Calm,-,0.00,,Clear,0,2013-06-30 05:20:00
1:40 AM,62.6,62.6,100,29.70,10.0,Calm,Calm,-,0.00,,Scattered Clouds,0,2013-06-30 05:40:00
2:00 AM,62.6,62.6,100,29.70,10.0,Calm,Calm,-,0.00,,Scattered Clouds,0,2013-06-30 06:00:00
2:20 AM,62.6,62.6,100,29.70,10.0,Calm,Calm,-,0.00,,Scattered Clouds,0,2013-06-30 06:20:00
2:40 AM,64.4,64.4,100,29.69,5.0,Calm,Calm,-,0.00,,Partly Cloudy,0,2013-06-30 06:40:00
3:00 AM,64.4,64.4,100,29.69,5.0,NE,5.8,-,0.00,,Partly Cloudy,50,2013-06-30 07:00:00
3:20 AM,64.4,64.4,100,29.69,6.0,NE,4.6,-,0.00,,Mostly Cloudy,50,2013-06-30 07:20:00
3:40 AM,64.4,64.4,100,29.70,7.0,Calm,Calm,-,0.00,,Mostly Cloudy,0,2013-06-30 07:40:00
4:00 AM,64.4,64.4,100,29.69,7.0,NE,5.8,-,0.00,,Mostly Cloudy,50,2013-06-30 08:00:00
4:20 AM,64.4,64.4,100,29.69,7.0,NE,4.6,-,0.00,,Scattered Clouds,40,2013-06-30 08:20:00
4:40 AM,64.4,64.4,100,29.70,5.0,Calm,Calm,-,0.00,,Mostly Cloudy,0,2013-06-30 08:40:00
5:00 AM,64.4,64.4,100,29.70,5.0,East,3.5,-,0.00,,Overcast,80,2013-06-30 09:00:00
5:20 AM,64.4,64.4,100,29.70,5.0,Calm,Calm,-,0.00,,Overcast,0,2013-06-30 09:20:00
5:40 AM,64.4,64.4,100,29.71,5.0,NE,4.6,-,0.00,,Mostly Cloudy,50,2013-06-30 09:40:00
6:00 AM,64.4,64.4,100,29.71,5.0,NE,3.5,-,0.00,,Mostly Cloudy,50,2013-06-30 10:00:00
6:20 AM,64.4,64.4,100,29.72,3.0,NNE,3.5,-,0.00,,Mostly Cloudy,20,2013-06-30 10:20:00
6:40 AM,64.4,64.4,100,29.73,2.5,NNE,5.8,-,0.00,,Mostly Cloudy,30,2013-06-30 10:40:00
7:00 AM,64.4,64.4,100,29.74,2.0,NNE,5.8,-,0.02,,Overcast,30,2013-06-30 11:00:00
7:20 AM,64.4,64.4,100,29.75,3.0,Calm,Calm,-,0.01,,Mostly Cloudy,0,2013-06-30 11:20:00
7:40 AM,64.4,64.4,100,29.76,1.8,Calm,Calm,-,0.11,,Overcast,0,2013-06-30 11:40:00
8:00 AM,64.4,64.4,100,29.75,1.5,NNE,8.1,-,0.27,,Overcast,20,2013-06-30 12:00:00
8:20 AM,64.4,64.4,100,29.76,1.8,NNE,6.9,-,0.05,,Overcast,20,2013-06-30 12:20:00
8:30 AM,64.4,64.4,100,29.76,1.8,NNE,5.8,-,0.08,,Overcast,20,2013-06-30 12:30:00
9:40 AM,66.2,-9999,N/A,29.77,5.0,NE,8.1,-,0.00,,Unknown,50,2013-06-30 13:40:00
9:45 AM,66.2,66.2,100,29.77,6.0,NE,8.1,-,0.00,,Unknown,50,2013-06-30 13:45:00
10:00 AM,66.2,66.2,100,29.77,9.0,NE,12.7,-,0.00,,Mostly Cloudy,50,2013-06-30 14:00:00
10:20 AM,68.0,68.0,100,29.77,10.0,ENE,10.4,-,0.00,,Mostly Cloudy,60,2013-06-30 14:20:00
10:40 AM,69.8,66.2,88,29.78,10.0,NE,10.4,-,0.00,,Mostly Cloudy,50,2013-06-30 14:40:00
11:00 AM,69.8,66.2,88,29.78,10.0,East,8.1,-,0.00,,Mostly Cloudy,80,2013-06-30 15:00:00
11:20 AM,71.6,66.2,83,29.78,10.0,East,11.5,-,0.00,,Mostly Cloudy,80,2013-06-30 15:20:00
11:40 AM,73.4,64.4,73,29.78,10.0,ENE,10.4,-,0.00,,Mostly Cloudy,70,2013-06-30 15:40:00
12:00 PM,71.6,64.4,78,29.79,10.0,ENE,9.2,-,0.00,,Mostly Cloudy,60,2013-06-30 16:00:00
12:20 PM,71.6,64.4,78,29.78,10.0,NE,10.4,-,0.00,,Scattered Clouds,50,2013-06-30 16:20:00
12:40 PM,71.6,62.6,73,29.78,10.0,NNE,16.1,-,0.00,,Mostly Cloudy,20,2013-06-30 16:40:00
1:00 PM,71.6,62.6,73,29.79,10.0,NNE,12.7,19.6,0.00,,Mostly Cloudy,30,2013-06-30 17:00:00
1:20 PM,69.8,62.6,78,29.79,10.0,NNE,13.8,-,0.00,,Mostly Cloudy,20,2013-06-30 17:20:00
1:40 PM,71.6,62.6,73,29.79,10.0,NNE,12.7,-,0.00,,Scattered Clouds,20,2013-06-30 17:40:00
2:00 PM,66.2,64.4,94,29.80,2.0,NNE,12.7,-,0.12,,Overcast,30,2013-06-30 18:00:00
2:20 PM,66.2,66.2,100,29.80,3.0,North,8.1,-,0.11,,Overcast,10,2013-06-30 18:20:00
2:40 PM,66.2,66.2,100,29.80,3.0,NNE,9.2,-,0.13,,Overcast,20,2013-06-30 18:40:00
3:00 PM,66.2,66.2,100,29.81,3.0,NNE,8.1,-,0.17,,Mostly Cloudy,20,2013-06-30 19:00:00
3:20 PM,66.2,66.2,100,29.81,5.0,NE,9.2,-,0.01,,Mostly Cloudy,40,2013-06-30 19:20:00
3:40 PM,66.2,66.2,100,29.81,8.0,ENE,9.2,-,0.01,,Scattered Clouds,60,2013-06-30 19:40:00
4:00 PM,66.2,66.2,100,29.81,10.0,NE,9.2,-,0.01,,Clear,50,2013-06-30 20:00:00
4:20 PM,66.2,66.2,100,29.80,10.0,NNE,9.2,-,0.01,,Partly Cloudy,30,2013-06-30 20:20:00
4:40 PM,66.2,66.2,100,29.81,10.0,NNE,8.1,-,0.01,,Clear,20,2013-06-30 20:40:00
5:00 PM,69.8,68.0,94,29.81,10.0,NNE,9.2,-,0.01,,Clear,30,2013-06-30 21:00:00
5:20 PM,71.6,66.2,83,29.81,10.0,NNE,11.5,-,0.00,,Clear,20,2013-06-30 21:20:00
5:40 PM,71.6,64.4,78,29.81,10.0,NNE,11.5,-,0.00,,Clear,30,2013-06-30 21:40:00
6:00 PM,71.6,66.2,83,29.81,10.0,NNE,11.5,-,0.00,,Partly Cloudy,20,2013-06-30 22:00:00
6:20 PM,71.6,64.4,78,29.82,10.0,NNE,8.1,-,0.00,,Partly Cloudy,30,2013-06-30 22:20:00
6:40 PM,71.6,64.4,78,29.82,10.0,NNE,13.8,-,0.00,,Partly Cloudy,20,2013-06-30 22:40:00
7:00 PM,71.6,64.4,78,29.82,10.0,NNE,12.7,18.4,0.00,,Scattered Clouds,30,2013-06-30 23:00:00
7:20 PM,69.8,62.6,78,29.83,10.0,NNE,13.8,-,0.00,,Partly Cloudy,20,2013-06-30 23:20:00
7:40 PM,69.8,62.6,78,29.84,10.0,NNE,11.5,-,0.00,,Mostly Cloudy,20,2013-06-30 23:40:00
8:00 PM,68.0,62.6,83,29.85,10.0,NNE,8.1,-,0.00,,Partly Cloudy,20,2013-07-01 00:00:00
8:20 PM,68.0,60.8,78,29.85,10.0,NNE,8.1,-,0.00,,Partly Cloudy,30,2013-07-01 00:20:00
8:40 PM,66.2,60.8,83,29.85,10.0,NNE,9.2,-,0.00,,Partly Cloudy,30,2013-07-01 00:40:00
9:00 PM,66.2,60.8,83,29.86,10.0,NNE,9.2,-,0.00,,Partly Cloudy,30,2013-07-01 01:00:00
9:20 PM,64.4,60.8,88,29.86,10.0,NNE,6.9,-,0.00,,Clear,20,2013-07-01 01:20:00
9:40 PM,64.4,60.8,88,29.86,10.0,NNE,8.1,-,0.00,,Clear,20,2013-07-01 01:40:00
10:00 PM,64.4,60.8,88,29.87,10.0,NNE,8.1,-,0.00,,Clear,20,2013-07-01 02:00:00
10:20 PM,64.4,60.8,88,29.87,10.0,NNE,8.1,-,0.00,,Clear,30,2013-07-01 02:20:00
10:40 PM,64.4,59.0,83,29.88,10.0,NNE,10.4,-,0.00,,Scattered Clouds,30,2013-07-01 02:40:00
11:00 PM,64.4,59.0,83,29.88,10.0,NNE,9.2,-,0.00,,Partly Cloudy,30,2013-07-01 03:00:00
11:20 PM,64.4,59.0,83,29.87,10.0,NNE,10.4,-,0.00,,Clear,30,2013-07-01 03:20:00
11:40 PM,64.4,59.0,83,29.86,10.0,NNE,9.2,-,0.00,,Clear,30,2013-07-01 03:40:00